VXP678 KHVN-KRDU

Flight info

Callsign VXP678
Flight time 1h 20m
Altitude 30000
Route BEADS EMJAY Q167 ZJAAY TAQLE3
Aircraft B738/M-SDE2E3FGHIRWXY/LB1

Departure

Time 2026-05-07 16:12
Airport Tweed New Haven Airport (KHVN)

Arrival

Time 2026-05-07 17:32
Airport Raleigh-Durham International Airport (KRDU)
Time Latitude Longitude Altitude Speed Heading
2026-05-07 15:42 41.26857 -72.89077 16 ft 0 kts 311°
2026-05-07 16:02 41.26849 -72.89065 16 ft 4 kts 311°
2026-05-07 16:02 41.26831 -72.89039 25 ft 4 kts 311°
2026-05-07 16:02 41.26814 -72.89012 16 ft 4 kts 306°
2026-05-07 16:03 41.26802 -72.88989 18 ft 4 kts 304°
2026-05-07 16:03 41.26786 -72.88960 17 ft 4 kts 310°
2026-05-07 16:03 41.26774 -72.88941 19 ft 0 kts 312°
2026-05-07 16:06 41.26775 -72.88943 16 ft 3 kts 312°
2026-05-07 16:06 41.26823 -72.88972 16 ft 10 kts 21°
2026-05-07 16:07 41.26874 -72.88918 16 ft 9 kts 28°
2026-05-07 16:07 41.26940 -72.88906 16 ft 10 kts
2026-05-07 16:07 41.26970 -72.88865 16 ft 10 kts 84°
2026-05-07 16:07 41.26963 -72.88748 16 ft 16 kts 96°
2026-05-07 16:08 41.26933 -72.88593 17 ft 10 kts 158°
2026-05-07 16:08 41.26884 -72.88592 16 ft 11 kts 183°
2026-05-07 16:08 41.26782 -72.88600 16 ft 18 kts 183°
2026-05-07 16:08 41.26644 -72.88609 16 ft 20 kts 183°
2026-05-07 16:09 41.26533 -72.88586 16 ft 15 kts 133°
2026-05-07 16:09 41.26466 -72.88486 16 ft 14 kts 131°
2026-05-07 16:09 41.26393 -72.88486 16 ft 12 kts 219°
2026-05-07 16:09 41.26323 -72.88558 16 ft 15 kts 216°
2026-05-07 16:10 41.26215 -72.88621 16 ft 18 kts 190°
2026-05-07 16:10 41.26096 -72.88649 16 ft 17 kts 190°
2026-05-07 16:10 41.25981 -72.88676 16 ft 16 kts 190°
2026-05-07 16:10 41.25871 -72.88702 16 ft 16 kts 190°
2026-05-07 16:11 41.25764 -72.88715 16 ft 15 kts 182°
2026-05-07 16:11 41.25659 -72.88721 16 ft 15 kts 182°
2026-05-07 16:11 41.25611 -72.88798 16 ft 9 kts 278°
2026-05-07 16:11 41.25645 -72.88823 16 ft 0 kts
2026-05-07 16:12 41.25896 -72.88806 18 ft 78 kts
2026-05-07 16:12 41.26696 -72.88753 16 ft 150 kts
2026-05-07 16:12 41.27791 -72.88611 746 ft 157 kts
2026-05-07 16:13 41.28875 -72.88182 1506 ft 174 kts 30°
2026-05-07 16:13 41.29571 -72.86919 1890 ft 177 kts 70°
2026-05-07 16:13 41.29533 -72.85265 2439 ft 192 kts 111°
2026-05-07 16:13 41.28661 -72.83790 2763 ft 217 kts 149°
2026-05-07 16:14 41.27229 -72.82859 3146 ft 244 kts 159°
2026-05-07 16:14 41.25617 -72.81978 3664 ft 252 kts 160°
2026-05-07 16:14 41.23908 -72.81081 4094 ft 275 kts 161°
2026-05-07 16:14 41.22105 -72.80142 4917 ft 279 kts 161°
2026-05-07 16:15 41.20293 -72.79191 5821 ft 280 kts 163°
2026-05-07 16:15 41.18484 -72.78235 6741 ft 279 kts 164°
2026-05-07 16:15 41.16669 -72.77273 7499 ft 283 kts 165°
2026-05-07 16:15 41.14851 -72.76306 7956 ft 281 kts 166°
2026-05-07 16:16 41.13023 -72.75332 8694 ft 285 kts 166°
2026-05-07 16:16 41.11179 -72.74349 9570 ft 287 kts 167°
2026-05-07 16:16 41.09318 -72.73356 10307 ft 291 kts 168°
2026-05-07 16:16 41.07368 -72.72328 10564 ft 314 kts 168°
2026-05-07 16:17 41.05287 -72.71235 10757 ft 337 kts 167°
2026-05-07 16:17 41.03038 -72.70046 10932 ft 359 kts 167°
2026-05-07 16:17 41.00657 -72.68779 11181 ft 376 kts 166°
2026-05-07 16:17 40.98210 -72.67465 11739 ft 382 kts 166°
2026-05-07 16:18 40.95740 -72.66133 12455 ft 384 kts 167°
2026-05-07 16:18 40.93259 -72.64799 13156 ft 387 kts 167°
2026-05-07 16:18 40.90751 -72.63459 13803 ft 390 kts 167°
2026-05-07 16:18 40.88225 -72.62113 14367 ft 393 kts 168°
2026-05-07 16:19 40.85678 -72.60759 14934 ft 396 kts 168°
2026-05-07 16:19 40.83105 -72.59393 15501 ft 400 kts 168°
2026-05-07 16:19 40.80514 -72.58019 16049 ft 403 kts 168°
2026-05-07 16:19 40.77901 -72.56663 16577 ft 402 kts 172°
2026-05-07 16:20 40.75226 -72.56095 17070 ft 380 kts 192°
2026-05-07 16:20 40.72718 -72.56646 17647 ft 364 kts 206°
2026-05-07 16:20 40.70419 -72.57933 18199 ft 354 kts 218°
2026-05-07 16:20 40.68457 -72.59836 18650 ft 350 kts 225°
2026-05-07 16:21 40.66608 -72.61912 19110 ft 350 kts 226°
2026-05-07 16:21 40.64767 -72.64036 19578 ft 352 kts 226°
2026-05-07 16:21 40.62925 -72.66167 20037 ft 353 kts 226°
2026-05-07 16:21 40.61068 -72.68305 20464 ft 356 kts 226°
2026-05-07 16:22 40.59195 -72.70446 20895 ft 358 kts 226°
2026-05-07 16:22 40.57307 -72.72591 21340 ft 359 kts 226°
2026-05-07 16:22 40.55406 -72.74742 21766 ft 361 kts 226°
2026-05-07 16:22 40.53494 -72.76900 22109 ft 364 kts 226°
2026-05-07 16:23 40.51564 -72.79075 22473 ft 367 kts 226°
2026-05-07 16:23 40.49619 -72.81261 22866 ft 368 kts 226°
2026-05-07 16:23 40.47669 -72.83451 23251 ft 370 kts 226°
2026-05-07 16:23 40.45730 -72.85628 23557 ft 372 kts 225°
2026-05-07 16:24 40.43749 -72.87849 23827 ft 375 kts 226°
2026-05-07 16:24 40.41764 -72.90074 24133 ft 376 kts 226°
2026-05-07 16:24 40.39773 -72.92301 24449 ft 377 kts 226°
2026-05-07 16:24 40.37774 -72.94538 24702 ft 379 kts 226°
2026-05-07 16:25 40.35761 -72.96788 24964 ft 381 kts 226°
2026-05-07 16:25 40.33740 -72.99045 25263 ft 382 kts 226°
2026-05-07 16:25 40.31716 -73.01303 25543 ft 383 kts 226°
2026-05-07 16:25 40.29686 -73.03567 25824 ft 384 kts 226°
2026-05-07 16:26 40.27652 -73.05832 26196 ft 382 kts 226°
2026-05-07 16:26 40.25628 -73.08082 26671 ft 379 kts 226°
2026-05-07 16:26 40.23626 -73.10307 27122 ft 377 kts 226°
2026-05-07 16:26 40.21627 -73.12529 27471 ft 377 kts 226°
2026-05-07 16:27 40.19628 -73.14751 27816 ft 377 kts 226°
2026-05-07 16:27 40.17663 -73.16933 28241 ft 374 kts 226°
2026-05-07 16:27 40.15679 -73.19131 28727 ft 371 kts 227°
2026-05-07 16:27 40.13710 -73.21315 29131 ft 370 kts 227°
2026-05-07 16:28 40.11743 -73.23494 29483 ft 371 kts 227°
2026-05-07 16:28 40.09776 -73.25670 29873 ft 370 kts 227°
2026-05-07 16:28 40.07806 -73.27860 29893 ft 373 kts 227°
2026-05-07 16:29 40.03881 -73.32264 29922 ft 370 kts 227°
2026-05-07 16:29 39.99985 -73.36633 29927 ft 369 kts 227°
2026-05-07 16:30 39.96093 -73.40989 29924 ft 368 kts 227°
2026-05-07 16:30 39.92201 -73.45338 29928 ft 369 kts 227°
2026-05-07 16:31 39.88298 -73.49692 29925 ft 370 kts 227°
2026-05-07 16:31 39.84407 -73.54023 29930 ft 371 kts 227°
2026-05-07 16:32 39.80471 -73.58397 29930 ft 373 kts 227°
2026-05-07 16:32 39.76516 -73.62786 29939 ft 374 kts 227°
2026-05-07 16:33 39.72540 -73.67194 29934 ft 378 kts 227°
2026-05-07 16:33 39.68479 -73.71694 29928 ft 387 kts 227°
2026-05-07 16:34 39.64374 -73.76228 29936 ft 388 kts 227°
2026-05-07 16:34 39.60252 -73.80772 29930 ft 389 kts 226°
2026-05-07 16:35 39.56146 -73.85294 29930 ft 390 kts 226°
2026-05-07 16:35 39.52009 -73.89843 29933 ft 390 kts 226°
2026-05-07 16:36 39.47862 -73.94397 29930 ft 390 kts 226°
2026-05-07 16:36 39.43723 -73.98936 29930 ft 390 kts 226°
2026-05-07 16:37 39.39570 -74.03482 29932 ft 391 kts 226°
2026-05-07 16:37 39.35414 -74.08031 29941 ft 392 kts 226°
2026-05-07 16:38 39.31251 -74.12585 29935 ft 393 kts 226°
2026-05-07 16:38 39.27069 -74.17151 29940 ft 394 kts 226°
2026-05-07 16:39 39.22872 -74.21726 29938 ft 396 kts 227°
2026-05-07 16:39 39.18648 -74.26325 29938 ft 398 kts 227°
2026-05-07 16:40 39.14408 -74.30932 29940 ft 399 kts 227°
2026-05-07 16:40 39.10176 -74.35524 29930 ft 401 kts 227°
2026-05-07 16:41 39.05888 -74.40168 29936 ft 403 kts 227°
2026-05-07 16:41 39.01591 -74.44815 29931 ft 404 kts 227°
2026-05-07 16:42 38.97281 -74.49469 29934 ft 405 kts 227°
2026-05-07 16:42 38.92970 -74.54143 29939 ft 405 kts 228°
2026-05-07 16:43 38.88814 -74.59008 29947 ft 404 kts 229°
2026-05-07 16:43 38.84677 -74.63911 29941 ft 404 kts 229°
2026-05-07 16:44 38.80548 -74.68749 29944 ft 405 kts 229°
2026-05-07 16:44 38.76373 -74.73615 29938 ft 405 kts 229°
2026-05-07 16:45 38.72084 -74.78349 29949 ft 409 kts 226°
2026-05-07 16:45 38.67644 -74.82921 29950 ft 410 kts 226°
2026-05-07 16:46 38.63200 -74.87506 29952 ft 411 kts 226°
2026-05-07 16:46 38.58753 -74.92126 29957 ft 412 kts 226°
2026-05-07 16:47 38.54290 -74.96760 29958 ft 414 kts 226°
2026-05-07 16:47 38.49921 -75.01458 29961 ft 413 kts 229°
2026-05-07 16:48 38.45561 -75.06262 29966 ft 416 kts 226°
2026-05-07 16:48 38.40906 -75.10730 29969 ft 420 kts 224°
2026-05-07 16:49 38.36188 -75.15136 29973 ft 421 kts 224°
2026-05-07 16:49 38.31481 -75.19569 29969 ft 421 kts 224°
2026-05-07 16:50 38.26774 -75.24027 29968 ft 422 kts 224°
2026-05-07 16:50 38.22054 -75.28496 29970 ft 423 kts 224°
2026-05-07 16:51 38.17324 -75.32967 29966 ft 424 kts 224°
2026-05-07 16:51 38.12616 -75.37409 29960 ft 424 kts 224°
2026-05-07 16:52 38.07871 -75.41880 29963 ft 425 kts 224°
2026-05-07 16:52 38.03224 -75.46486 29962 ft 421 kts 228°
2026-05-07 16:53 37.98952 -75.51531 29959 ft 419 kts 230°
2026-05-07 16:53 37.95443 -75.55762 29962 ft 419 kts 230°
2026-05-07 16:54 37.91178 -75.60817 29961 ft 420 kts 229°
2026-05-07 16:54 37.86883 -75.65840 29956 ft 421 kts 229°
2026-05-07 16:55 37.82570 -75.70860 29949 ft 421 kts 229°
2026-05-07 16:55 37.78241 -75.75892 29953 ft 422 kts 229°
2026-05-07 16:56 37.73932 -75.80895 29946 ft 423 kts 229°
2026-05-07 16:56 37.67414 -75.88446 29939 ft 424 kts 229°
2026-05-07 16:57 37.63063 -75.93477 29949 ft 424 kts 229°
2026-05-07 16:57 37.58889 -75.98680 29935 ft 418 kts 236°
2026-05-07 16:58 37.55264 -76.04374 29929 ft 415 kts 238°
2026-05-07 16:58 37.51720 -76.10029 29898 ft 399 kts 237°
2026-05-07 16:59 37.50013 -76.12702 29912 ft 385 kts 237°
2026-05-07 16:59 37.48337 -76.15313 29920 ft 382 kts 237°
2026-05-07 16:59 37.44990 -76.20517 29558 ft 384 kts 237°
2026-05-07 17:00 37.43318 -76.23104 29112 ft 379 kts 237°
2026-05-07 17:00 37.41689 -76.25618 28697 ft 373 kts 237°
2026-05-07 17:00 37.40055 -76.28139 28190 ft 370 kts 237°
2026-05-07 17:00 37.38432 -76.30641 27711 ft 367 kts 237°
2026-05-07 17:01 37.36827 -76.33116 27233 ft 364 kts 237°
2026-05-07 17:01 37.35230 -76.35576 26722 ft 363 kts 237°
2026-05-07 17:01 37.33636 -76.38032 26220 ft 362 kts 237°
2026-05-07 17:01 37.32044 -76.40481 25705 ft 361 kts 237°
2026-05-07 17:02 37.30455 -76.42925 25215 ft 360 kts 237°
2026-05-07 17:02 37.28871 -76.45359 24751 ft 359 kts 237°
2026-05-07 17:02 37.27291 -76.47781 24302 ft 358 kts 237°
2026-05-07 17:02 37.25722 -76.50189 23982 ft 353 kts 237°
2026-05-07 17:03 37.24195 -76.52555 23827 ft 345 kts 238°
2026-05-07 17:03 37.22680 -76.54927 23754 ft 354 kts 238°
2026-05-07 17:03 37.21117 -76.57384 23625 ft 365 kts 238°
2026-05-07 17:03 37.19521 -76.59886 23483 ft 367 kts 238°
2026-05-07 17:04 37.17927 -76.62369 23346 ft 363 kts 237°
2026-05-07 17:04 37.16373 -76.64784 23221 ft 359 kts 237°
2026-05-07 17:04 37.14806 -76.67220 23115 ft 359 kts 237°
2026-05-07 17:04 37.13236 -76.69662 23015 ft 359 kts 237°
2026-05-07 17:05 37.11667 -76.72102 22895 ft 360 kts 237°
2026-05-07 17:05 37.10097 -76.74541 22805 ft 359 kts 237°
2026-05-07 17:05 37.08527 -76.76978 22684 ft 359 kts 237°
2026-05-07 17:05 37.06958 -76.79412 22575 ft 359 kts 237°
2026-05-07 17:06 37.05391 -76.81840 22448 ft 358 kts 237°
2026-05-07 17:06 37.03826 -76.84263 22342 ft 358 kts 237°
2026-05-07 17:06 37.02265 -76.86680 22233 ft 357 kts 237°
2026-05-07 17:06 37.00707 -76.89091 22128 ft 355 kts 237°
2026-05-07 17:07 36.99155 -76.91488 22013 ft 354 kts 237°
2026-05-07 17:07 36.97603 -76.93883 21855 ft 355 kts 237°
2026-05-07 17:07 36.96045 -76.96286 21596 ft 357 kts 236°
2026-05-07 17:07 36.94482 -76.98688 21343 ft 353 kts 236°
2026-05-07 17:08 36.92944 -77.01049 21095 ft 348 kts 236°
2026-05-07 17:08 36.91421 -77.03385 20850 ft 345 kts 236°
2026-05-07 17:08 36.89915 -77.05697 20509 ft 339 kts 236°
2026-05-07 17:08 36.88451 -77.07943 19895 ft 336 kts 236°
2026-05-07 17:09 36.86972 -77.10215 19086 ft 338 kts 235°
2026-05-07 17:09 36.85488 -77.12494 18357 ft 338 kts 234°
2026-05-07 17:09 36.84037 -77.14714 18175 ft 324 kts 234°
2026-05-07 17:09 36.82611 -77.16899 17952 ft 327 kts 234°
2026-05-07 17:10 36.81158 -77.19127 17744 ft 334 kts 234°
2026-05-07 17:10 36.79686 -77.21378 17529 ft 335 kts 234°
2026-05-07 17:10 36.78210 -77.23618 17315 ft 332 kts 234°
2026-05-07 17:10 36.76736 -77.25821 17124 ft 329 kts 234°
2026-05-07 17:11 36.75263 -77.28009 16921 ft 327 kts 233°
2026-05-07 17:11 36.73804 -77.30175 16728 ft 325 kts 233°
2026-05-07 17:11 36.72353 -77.32329 16535 ft 323 kts 233°
2026-05-07 17:11 36.70928 -77.34444 16352 ft 322 kts 233°
2026-05-07 17:12 36.69487 -77.36584 16154 ft 321 kts 233°
2026-05-07 17:12 36.68052 -77.38716 15976 ft 321 kts 233°
2026-05-07 17:12 36.66624 -77.40834 15879 ft 318 kts 233°
2026-05-07 17:12 36.65203 -77.42943 15701 ft 318 kts 233°
2026-05-07 17:13 36.63782 -77.45051 15526 ft 318 kts 233°
2026-05-07 17:13 36.62354 -77.47168 15340 ft 319 kts 233°
2026-05-07 17:13 36.60926 -77.49283 15157 ft 320 kts 233°
2026-05-07 17:13 36.59496 -77.51401 14969 ft 320 kts 233°
2026-05-07 17:14 36.58065 -77.53518 14783 ft 319 kts 233°
2026-05-07 17:14 36.56634 -77.55634 14576 ft 319 kts 233°
2026-05-07 17:14 36.55208 -77.57740 14396 ft 317 kts 233°
2026-05-07 17:14 36.53789 -77.59835 14207 ft 315 kts 233°
2026-05-07 17:15 36.52380 -77.61913 14017 ft 313 kts 233°
2026-05-07 17:15 36.50980 -77.63978 13812 ft 311 kts 233°
2026-05-07 17:15 36.49608 -77.65999 13618 ft 309 kts 233°
2026-05-07 17:15 36.48224 -77.68038 13414 ft 307 kts 233°
2026-05-07 17:16 36.46851 -77.70059 13214 ft 305 kts 233°
2026-05-07 17:16 36.45486 -77.72067 13030 ft 303 kts 233°
2026-05-07 17:16 36.44128 -77.74064 12852 ft 302 kts 233°
2026-05-07 17:16 36.42776 -77.76051 12669 ft 300 kts 233°
2026-05-07 17:17 36.41430 -77.78029 12496 ft 300 kts 233°
2026-05-07 17:17 36.40083 -77.80007 12314 ft 300 kts 233°
2026-05-07 17:17 36.38741 -77.81976 12133 ft 299 kts 233°
2026-05-07 17:17 36.37393 -77.83952 11959 ft 299 kts 233°
2026-05-07 17:18 36.36050 -77.85921 11784 ft 299 kts 233°
2026-05-07 17:18 36.34699 -77.87899 11613 ft 300 kts 233°
2026-05-07 17:18 36.33347 -77.89880 11422 ft 301 kts 233°
2026-05-07 17:18 36.31993 -77.91860 11246 ft 301 kts 233°
2026-05-07 17:19 36.30643 -77.93833 11057 ft 299 kts 233°
2026-05-07 17:19 36.29297 -77.95800 10888 ft 298 kts 233°
2026-05-07 17:19 36.27967 -77.97742 10697 ft 292 kts 233°
2026-05-07 17:19 36.26688 -77.99607 10522 ft 284 kts 233°
2026-05-07 17:20 36.25411 -78.01467 10351 ft 276 kts 233°
2026-05-07 17:20 36.24202 -78.03227 10193 ft 268 kts 233°
2026-05-07 17:20 36.23049 -78.05008 9997 ft 260 kts 242°
2026-05-07 17:20 36.22283 -78.06966 9860 ft 250 kts 248°
2026-05-07 17:21 36.21564 -78.08964 9409 ft 254 kts 247°
2026-05-07 17:21 36.20835 -78.10974 9055 ft 255 kts 248°
2026-05-07 17:21 36.20155 -78.12971 8853 ft 249 kts 249°
2026-05-07 17:21 36.19505 -78.14933 8635 ft 244 kts 249°
2026-05-07 17:22 36.18869 -78.16855 8462 ft 239 kts 249°
2026-05-07 17:22 36.18236 -78.18757 8277 ft 238 kts 249°
2026-05-07 17:22 36.17602 -78.20657 8101 ft 238 kts 249°
2026-05-07 17:22 36.17012 -78.22573 7832 ft 240 kts 253°
2026-05-07 17:23 36.16549 -78.24578 7524 ft 242 kts 255°
2026-05-07 17:23 36.16114 -78.26581 7321 ft 240 kts 255°
2026-05-07 17:23 36.15679 -78.28566 7169 ft 239 kts 255°
2026-05-07 17:23 36.15238 -78.30553 7007 ft 240 kts 255°
2026-05-07 17:24 36.14788 -78.32551 6855 ft 241 kts 255°
2026-05-07 17:24 36.14335 -78.34544 6685 ft 238 kts 255°
2026-05-07 17:24 36.13889 -78.36491 6536 ft 232 kts 255°
2026-05-07 17:24 36.13459 -78.38363 6381 ft 227 kts 255°
2026-05-07 17:25 36.13033 -78.40212 6232 ft 221 kts 254°
2026-05-07 17:25 36.12617 -78.42015 6063 ft 215 kts 253°
2026-05-07 17:25 36.12009 -78.43667 5945 ft 208 kts 239°
2026-05-07 17:25 36.11214 -78.45145 5845 ft 205 kts 238°
2026-05-07 17:26 36.10480 -78.46462 5774 ft 206 kts 237°
2026-05-07 17:26 36.09666 -78.47932 5673 ft 208 kts 237°
2026-05-07 17:26 36.08848 -78.49420 5563 ft 210 kts 238°
2026-05-07 17:26 36.08041 -78.50902 5479 ft 211 kts 238°
2026-05-07 17:27 36.07209 -78.52436 5364 ft 213 kts 238°
2026-05-07 17:27 36.06401 -78.53927 5256 ft 210 kts 238°
2026-05-07 17:27 36.05590 -78.55424 5071 ft 208 kts 238°
2026-05-07 17:27 36.04779 -78.56898 4906 ft 208 kts 235°
2026-05-07 17:28 36.03842 -78.58268 4749 ft 209 kts 229°
2026-05-07 17:28 36.02826 -78.59553 4555 ft 210 kts 227°
2026-05-07 17:28 36.01787 -78.60830 4262 ft 210 kts 227°
2026-05-07 17:28 36.00760 -78.62093 4029 ft 207 kts 226°
2026-05-07 17:29 35.99746 -78.63338 3743 ft 204 kts 227°
2026-05-07 17:29 35.98744 -78.64575 3482 ft 205 kts 226°
2026-05-07 17:29 35.97724 -78.65832 3187 ft 208 kts 227°
2026-05-07 17:29 35.96698 -78.67099 2927 ft 208 kts 225°
2026-05-07 17:30 35.95673 -78.68362 2649 ft 209 kts 225°
2026-05-07 17:30 35.94642 -78.69634 2343 ft 210 kts 226°
2026-05-07 17:30 35.93626 -78.70889 2073 ft 209 kts 227°
2026-05-07 17:30 35.92601 -78.72157 1759 ft 205 kts 225°
2026-05-07 17:31 35.91632 -78.73350 1541 ft 185 kts 225°
2026-05-07 17:31 35.90801 -78.74374 1294 ft 172 kts 226°
2026-05-07 17:31 35.89986 -78.75381 1099 ft 161 kts 226°
2026-05-07 17:31 35.89219 -78.76328 965 ft 152 kts 227°
2026-05-07 17:32 35.88473 -78.77251 648 ft 151 kts 229°
2026-05-07 17:32 35.87725 -78.78174 434 ft 149 kts 229°
2026-05-07 17:32 35.87155 -78.78881 432 ft 65 kts 225°
2026-05-07 17:32 35.87036 -78.79028 435 ft 19 kts 227°
2026-05-07 17:33 35.87048 -78.79115 434 ft 9 kts 316°
2026-05-07 17:33 35.87088 -78.79147 426 ft 7 kts
2026-05-07 17:33 35.87113 -78.79123 434 ft 0 kts 45°
2026-05-07 17:34 35.87119 -78.79116 434 ft 6 kts 44°
2026-05-07 17:35 35.87174 -78.79049 434 ft 13 kts 45°
2026-05-07 17:35 35.87234 -78.78974 425 ft 12 kts 45°
2026-05-07 17:35 35.87291 -78.78911 418 ft 10 kts 23°
2026-05-07 17:35 35.87344 -78.78949 428 ft 9 kts 314°
2026-05-07 17:36 35.87362 -78.78971 423 ft 2 kts 314°
2026-05-07 17:36 35.87368 -78.78979 422 ft 0 kts 314°